Regional Weather Roundup
Issued by NWS

Home | Current Version | Previous Version | Graphics & Text | Print | Product List | Glossary On
Versions: 1 2 3 4 5 6 7 8 9 10 11 12 13 14 15 16 17 18 19 20 21 22 23 24 25 26 27 28 29 30 31 32 33 34 35 36 37 38 39 40 41 42 43 44 45 46 47 48 49 50
000
ASUS43 KOAX 130210
RWRNE

WEATHER ROUNDUP FOR NEBRASKA
NATIONAL WEATHER SERVICE OMAHA NE
800 PM CST TUE DEC 12 2017

NOTES: SATELLITE DATA IS BEING USED TO AUGMENT CLOUD COVER ABOVE
       12000 FEET.
       "FAIR" INDICATES FEW OR NO CLOUDS BELOW 12,000 FEET WITH NO
       SIGNIFICANT WEATHER AND/OR OBSTRUCTIONS TO VISIBILITY.


NEZ001>004-019>022-054>056-130300-
NEBRASKA PANHANDLE

CITY           SKY/WX    TMP DP  RH WIND       PRES   REMARKS
SCOTTSBLUFF    CLEAR     43  16  33 NW8       30.03F
ALLIANCE       CLEAR     29  16  58 W13       29.98F WCI  19
CHADRON        CLEAR     41  17  38 W7        29.95F
GORDON         FAIR      45  22  40 W10       29.92F
KIMBALL        CLEAR     46  11  24 W15       30.08S
SIDNEY         CLEAR     48  12  23 W15       30.04F
$$

NEZ057>060-069>072-079>082-130300-
SOUTHWEST NEBRASKA

CITY           SKY/WX    TMP DP  RH WIND       PRES   REMARKS
NORTH PLATTE   CLEAR     34  20  56 NW6       29.95F WCI  29
IMPERIAL       CLEAR     43  17  35 W10       30.00F
LEXINGTON      CLOUDY    38  20  49 N5        29.94F WCI  34
MCCOOK         CLEAR     42  19  39 W8        29.98F
OGALLALA       CLEAR     40  16  37 W5        29.99S
$$

NEZ005>010-023>029-035>040-094-130300-
NORTH CENTRAL NEBRASKA

CITY           SKY/WX    TMP DP  RH WIND       PRES   REMARKS
VALENTINE      CLEAR     41  20  43 SW8       29.85F
AINSWORTH      CLEAR     39  22  51 SW9       29.85F WCI  33
BROKEN BOW     CLEAR     33  19  56 CALM      29.90F
O`NEILL        CLEAR     42  21  44 SW9       29.85F
ORD            CLEAR     43  20  39 SW14      29.88F
THEDFORD       CLEAR     43  19  38 NW6       29.91F
$$

NEZ041-046>049-061>064-073>077-083>087-130300-
SOUTH CENTRAL NEBRASKA

CITY           SKY/WX    TMP DP  RH WIND       PRES   REMARKS
GRAND ISLAND   CLEAR     42  21  43 SW14      29.92F
AURORA         CLEAR     39  19  45 SW12      29.92F WCI  32
HASTINGS       CLEAR     41  18  39 S7        29.95F
HEBRON         CLEAR     40  25  53 SW10      29.97F WCI  34
HOLDREGE       CLEAR     39  21  47 SW8       29.95F WCI  34
KEARNEY        CLEAR     41  20  43 SW13      29.94F
YORK           CLEAR     36  19  51 SW7       29.94F WCI  30
$$

NEZ011>018-030>034-042>045-130300-
NORTHEAST NEBRASKA

CITY           SKY/WX    TMP DP  RH WIND       PRES   REMARKS
NORFOLK        CLEAR     40  20  44 SW9       29.85F WCI  34
ALBION         CLEAR     41  19  40 S3        29.88F
BLAIR          CLEAR     36  27  70 S9        29.92F WCI  29
COLUMBUS       CLEAR     42  19  39 SW9       29.91F
FREMONT        CLEAR     39  26  58 S7        29.92F WCI  34
TEKAMAH        CLEAR     27  19  72 S9        29.92F WCI  18
WAYNE          CLEAR     32  21  63 S8        29.86F WCI  25
$$

NEZ050>053-065>068-078-088>093-130300-
SOUTHEAST NEBRASKA

CITY           SKY/WX    TMP DP  RH WIND       PRES   REMARKS
LINCOLN        CLEAR     35  24  64 S8        29.95F WCI  29
OMAHA EPPLEY   CLEAR     32  24  72 SE8       29.94F WCI  25
BEATRICE       CLEAR     41  27  56 SW10      29.97F
FALLS CITY     CLEAR     35  26  69 S12       29.99F WCI  27
NEBRASKA CITY  CLEAR     33  28  80 SW9       29.96F WCI  26
PLATTSMOUTH    CLEAR     34  27  75 S9        29.95F WCI  27
$$

NEZ044-045-051>053-067-130300-
OMAHA AREA

CITY           SKY/WX    TMP DP  RH WIND       PRES   REMARKS
OMAHA EPPLEY   CLEAR     32  24  72 SE8       29.94F WCI  25
BLAIR          CLEAR     36  27  70 S9        29.92F WCI  29
FREMONT        CLEAR     39  26  58 S7        29.92F WCI  34
MILLARD        CLEAR     36  27  70 SE3       29.94F
OFFUTT AFB     CLEAR     31  24  76 SE5       29.94F WCI  26
PLATTSMOUTH    CLEAR     34  27  75 S9        29.95F WCI  27
WAHOO          FAIR      36  24  62 SW3       29.93F
$$




USA.gov is the U.S. government's official web portal to all federal, state and local government web resources and services.